Flag for U.S.A. Weather past 2 weeks in Compton, California, U.S.A.

Now
79 °F

Sunny.


Feels Like: 80 °F
Forecast: 65 / 85 °F
Wind: No wind

Location: Hawthorne Municipal Airport

Current Time: Aug 29, 2014 at 11:29:22 AM

Latest Report: Aug 29, 2014 at 10:53 AM


Visibility: 10 mi

Pressure: 29.88 "Hg

Humidity: 54%

Dew point: 61 °F

Location of ComptonLocation

Historic Weather in Compton — Graph

°F

Compton temperature yesterday

Maximum temperature yesterday: 86 °F (at 4:53 PM)
Minimum temperature yesterday: 70 °F (at 5:53 AM)
Average temperature yesterday: 78 °F

Past Weeks' High & Low Weather Summary

 TemperatureHumidityPressure
High86 °F (Aug 27, 12:53 PM)94% (Aug 15, 3:53 AM)30.03 "Hg (Aug 15, 3:53 AM)
Low64 °F (Aug 15, 3:53 AM)18% (Aug 28, 4:53 PM)29.79 "Hg (Aug 18, 4:53 PM)
Average72 °F69%29.92 "Hg
* Reported Aug 14 9:53 AM — Aug 29 9:53 AM, Compton, Weather by CustomWeather, © 2014

Note: Actual official high and low records may vary slightly from our data, if they occured in-between our weather recording intervals... More about our weather records

Advertising

Compton weather history for previous 24 hours

 ConditionsComfort  
Time TempWeatherWind HumidityBarometerVisibility
9:53 AM
Aug 29
76 °FSunny.3 mph62%29.89 "Hg10 mi
8:53 AM73 °FSunny.6 mph71%29.88 "Hg10 mi
7:53 AM69 °FSunny.No wind84%29.88 "Hg10 mi
6:53 AM68 °FClear.No wind84%29.88 "Hg9 mi
5:53 AM68 °FClear.No wind87%29.87 "Hg10 mi
4:53 AM68 °FClear.No wind82%29.86 "Hg10 mi
3:53 AM68 °FClear.No wind82%29.86 "Hg10 mi
2:53 AM68 °FClear.No wind82%29.87 "Hg10 mi
1:53 AM69 °FClear.5 mph81%29.88 "Hg10 mi
12:53 AM71 °FClear.5 mph71%29.89 "Hg10 mi
11:53 PM
Aug 28
72 °FClear.No wind64%29.89 "Hg10 mi
10:53 PM73 °FClear.6 mph57%29.89 "Hg10 mi
9:53 PM73 °FClear.8 mph55%29.90 "Hg10 mi
8:53 PM76 °FClear.8 mph45%29.89 "Hg10 mi
7:53 PM81 °FSunny.10 mph21%29.87 "Hg10 mi
6:53 PM82 °FSunny.12 mph25%29.86 "Hg10 mi
5:53 PM83 °FSunny.9 mph26%29.86 "Hg10 mi
4:53 PM86 °FSunny.12 mph18%29.87 "Hg10 mi
3:53 PM82 °FSunny.14 mph43%29.90 "Hg10 mi
2:53 PM82 °FSunny.15 mph44%29.92 "Hg10 mi
1:53 PM84 °FSunny.13 mph31%29.93 "Hg10 mi
12:53 PM84 °FSunny.13 mph38%29.95 "Hg10 mi
11:53 AM84 °FSunny.9 mph38%29.97 "Hg10 mi
Weather by CustomWeather, © 2014

See weather overviewHow to use our weather pages